TimeCST,TemperatureF,Dew PointF,Humidity,Sea Level PressureIn,VisibilityMPH,Wind Direction,Wind SpeedMPH,Gust SpeedMPH,PrecipitationIn,Events,Conditions,WindDirDegrees,DateUTC
12:01 AM,66.2,60.8,83,29.88,10.0,South,12.7,24.2,N/A,,Overcast,180,2012-12-16 06:01:00
12:53 AM,66.9,61.0,81,29.86,10.0,South,17.3,23.0,N/A,,Overcast,190,2012-12-16 06:53:00
1:53 AM,66.9,61.0,81,29.86,10.0,South,13.8,-,N/A,,Overcast,190,2012-12-16 07:53:00
2:53 AM,66.0,62.1,87,29.84,10.0,South,10.4,-,0.03,,Overcast,190,2012-12-16 08:53:00
3:53 AM,64.9,62.1,90,29.84,10.0,SSW,9.2,-,0.01,,Overcast,200,2012-12-16 09:53:00
4:32 AM,62.6,60.8,94,29.84,10.0,North,3.5,-,N/A,,Overcast,10,2012-12-16 10:32:00
4:40 AM,62.6,60.8,94,29.84,10.0,North,6.9,-,0.00,Rain,Light Rain,10,2012-12-16 10:40:00
4:53 AM,62.1,60.1,93,29.85,10.0,North,11.5,-,0.01,,Overcast,350,2012-12-16 10:53:00
5:10 AM,60.8,60.8,100,29.84,1.0,North,9.2,-,0.30,Rain,Heavy Rain,360,2012-12-16 11:10:00
5:19 AM,62.6,60.8,94,29.86,0.8,NW,6.9,-,0.53,Rain,Heavy Rain,310,2012-12-16 11:19:00
5:28 AM,62.6,62.6,100,29.87,1.2,NNW,4.6,-,0.65,Rain,Heavy Rain,340,2012-12-16 11:28:00
5:34 AM,62.6,62.6,100,29.88,0.8,Calm,Calm,-,0.75,Rain,Heavy Rain,0,2012-12-16 11:34:00
5:36 AM,62.6,62.6,100,29.87,0.8,Calm,Calm,-,0.77,Rain,Heavy Rain,0,2012-12-16 11:36:00
5:44 AM,62.6,62.6,100,29.87,1.2,WSW,3.5,-,0.83,Rain,Heavy Rain,250,2012-12-16 11:44:00
5:53 AM,62.1,62.1,100,29.86,2.5,SSW,4.6,-,0.87,Rain,Heavy Rain,200,2012-12-16 11:53:00
6:02 AM,62.6,60.8,94,29.87,6.0,SSW,4.6,-,0.01,Rain,Light Rain,200,2012-12-16 12:02:00
6:46 AM,60.8,60.8,100,29.88,2.0,South,6.9,-,0.16,Rain,Heavy Rain,170,2012-12-16 12:46:00
6:53 AM,61.0,61.0,100,29.88,3.0,South,6.9,-,0.20,Rain,Heavy Rain,190,2012-12-16 12:53:00
7:01 AM,60.8,60.8,100,29.89,2.0,SSW,5.8,-,0.06,Rain,Heavy Rain,200,2012-12-16 13:01:00
7:18 AM,60.8,60.8,100,29.86,5.0,SSE,10.4,-,0.12,Rain,Light Rain,160,2012-12-16 13:18:00
7:53 AM,61.0,61.0,100,29.85,8.0,South,11.5,-,0.15,Rain,Light Rain,170,2012-12-16 13:53:00
8:53 AM,62.1,60.1,93,29.84,10.0,SSW,8.1,-,0.02,Rain,Light Rain,200,2012-12-16 14:53:00
9:53 AM,62.1,61.0,96,29.85,10.0,SSW,6.9,-,0.00,Rain,Light Rain,200,2012-12-16 15:53:00
10:29 AM,62.6,60.8,94,29.81,10.0,SSE,13.8,-,0.03,Rain,Light Rain,150,2012-12-16 16:29:00
10:50 AM,62.6,60.8,94,29.87,6.0,West,5.8,-,0.04,Rain,Light Rain,280,2012-12-16 16:50:00
10:53 AM,63.0,61.0,93,29.86,4.0,WSW,4.6,-,0.05,Rain,Rain,240,2012-12-16 16:53:00
11:09 AM,62.6,60.8,94,29.87,3.0,SW,8.1,-,0.04,Rain,Rain,220,2012-12-16 17:09:00
11:30 AM,62.6,60.8,94,29.86,4.0,South,9.2,-,0.10,Rain,Rain,180,2012-12-16 17:30:00
11:35 AM,62.6,60.8,94,29.86,4.0,South,9.2,-,0.12,Rain,Rain,190,2012-12-16 17:35:00
11:53 AM,61.0,60.1,97,29.85,5.0,South,8.1,-,0.16,Rain,Rain,190,2012-12-16 17:53:00
12:16 PM,60.8,60.8,100,29.86,2.5,SSW,10.4,-,0.06,Rain,Rain,210,2012-12-16 18:16:00
12:24 PM,60.8,60.8,100,29.85,1.0,South,13.8,-,0.18,Rain,Heavy Rain,180,2012-12-16 18:24:00
12:33 PM,60.8,60.8,100,29.84,3.0,South,15.0,-,0.20,Rain,Rain,180,2012-12-16 18:33:00
12:45 PM,60.8,60.8,100,29.83,5.0,South,11.5,-,0.22,Rain,Rain,190,2012-12-16 18:45:00
12:53 PM,61.0,60.1,97,29.83,3.0,SSW,11.5,-,0.25,Rain,Rain,200,2012-12-16 18:53:00
1:53 PM,61.0,61.0,100,29.81,5.0,South,5.8,-,0.09,Rain,Rain,170,2012-12-16 19:53:00
2:53 PM,61.0,59.0,93,29.78,7.0,SSE,10.4,-,0.08,Rain,Light Rain,160,2012-12-16 20:53:00
3:53 PM,60.8,59.0,94,29.79,10.0,SSE,15.0,-,N/A,Rain,Light Rain,160,2012-12-16 21:53:00
11:39 PM,59.0,57.2,94,29.79,10.0,South,8.1,-,N/A,,Overcast,190,2012-12-17 05:39:00
11:53 PM,59.0,57.2,94,29.79,10.0,South,8.1,-,N/A,,Overcast,180,2012-12-17 05:53:00
11:55 PM,59.0,57.2,94,29.78,10.0,South,6.9,-,N/A,,Overcast,180,2012-12-17 05:55:00